{"data":{"norad_id":39485,"epoch":"2026-09-20T05:07:16.400064Z","epoch_age_seconds":61892,"freshness":"FRESH","line1":"1 39485U 13076C   26263.21338426  .00000044  00000+0  24424-3 0  9990","line2":"2 39485  82.4789 108.9258 0020592 265.7615  94.1112 12.42880917577685","mean_motion":12.42880917,"eccentricity":0.0020592,"inclination_deg":82.4789,"raan_deg":108.9258,"arg_perigee_deg":265.7615,"mean_anomaly_deg":94.1112,"bstar":0.00024424,"rev_number":57768,"period_min":115.85985272634,"perigee_km":1478.2030583161,"apogee_km":1510.6253732432,"semimajor_km":7872.5512157797,"source":"CELESTRAK","updated_at":"2026-09-20T09:00:13.962119Z"}}